GFSNW_700_rhum_033.txt.gz
RH
39 48 73 79 76 64 68 61 65 76 90 94 97 98 98 97 94 84 87 72 74 79 82 94 84 75 87 95 85 95 94 86 90 81 72 79 77 70 88 82 64 85 86 71
35 47 63 70 61 76 62 32 48 62 82 96 97 98 93 97 96 88 85 84 82 73 84 76 79 84 90 96 98 86 90 93 90 88 82 91 92 88 90 89 88 87 90 68
26 43 50 59 44 55 62 34 54 64 80 89 93 96 92 97 96 91 85 85 80 84 83 86 97 90 89 98 98 95 88 88 70 79 93 86 87 83 83 88 98 87 84 77
4 35 46 57 50 47 53 54 61 63 79 90 91 86 94 95 95 90 92 89 86 89 87 86 91 95 87 94 98 99 97 93 87 67 65 72 69 63 70 84 80 99 70 91
3 14 40 48 54 53 50 49 66 65 82 100 92 86 92 88 79 76 93 92 96 91 87 83 90 88 77 65 78 100 98 91 87 72 85 83 86 79 84 95 92 99 99 98
13 2 19 42 51 54 55 51 60 72 73 94 94 87 85 83 77 81 82 89 94 92 96 98 94 95 86 84 82 75 90 97 93 74 73 80 84 87 92 94 90 100 100 98
17 10 1 19 44 52 54 53 57 70 84 93 92 90 88 81 75 69 76 88 93 90 88 87 93 92 95 98 89 92 86 89 81 79 81 92 84 75 87 87 88 99 99 100
19 16 6 1 20 46 59 64 61 62 80 99 100 89 82 87 75 68 74 83 82 82 85 87 87 91 93 95 97 98 90 86 86 97 91 73 85 81 84 89 83 89 92 98
22 19 15 4 2 22 56 65 69 81 100 99 96 99 93 96 91 91 84 82 81 84 88 81 92 94 91 99 98 99 92 100 97 100 97 89 77 68 84 86 83 80 86 98
25 22 19 13 4 2 29 63 77 77 100 100 100 100 95 100 94 91 98 95 91 84 83 74 82 84 90 89 95 92 100 99 98 98 97 74 64 85 93 83 73 81 72 88
27 23 22 19 10 5 3 44 85 95 83 98 100 98 90 90 97 95 96 93 90 96 94 85 94 84 82 87 94 94 83 91 94 99 99 90 93 92 97 85 72 65 67 73
28 23 22 20 14 8 8 8 85 100 99 91 98 100 100 95 97 96 100 98 94 92 95 93 96 88 91 92 87 94 95 79 93 87 69 85 94 91 91 80 64 66 71 75
27 23 21 17 12 10 18 12 44 100 98 99 100 99 99 97 96 99 97 99 99 91 98 100 97 89 85 84 90 87 95 99 96 96 76 96 94 90 81 78 62 68 69 76
25 23 21 15 30 17 23 30 19 96 98 98 99 98 98 100 97 97 94 96 98 95 93 98 99 98 91 83 82 82 79 93 97 92 76 84 89 85 75 76 62 62 64 72
26 24 18 38 43 56 21 35 20 92 97 95 98 95 96 100 100 97 93 96 90 94 96 98 100 97 95 87 80 73 73 72 85 90 88 88 80 72 70 72 68 61 64 69
27 21 31 19 47 81 70 63 21 91 98 98 97 98 98 97 99 97 96 97 98 100 95 100 99 99 99 98 98 62 88 98 86 82 85 75 66 64 70 71 73 65 62 69
26 21 9 17 30 68 73 39 39 97 97 99 98 99 98 95 93 95 100 100 100 100 100 98 87 96 100 99 93 81 76 98 100 100 87 70 66 68 74 75 76 71 64 68
21 10 9 12 32 38 26 71 92 97 97 97 97 99 99 95 97 100 100 99 100 99 97 98 96 97 100 97 96 99 100 91 94 97 86 75 74 76 72 68 72 78 68 75
18 13 16 21 55 87 98 97 96 97 98 96 100 100 98 100 99 97 100 98 99 100 100 99 99 98 98 98 98 97 96 94 94 99 92 80 77 72 70 68 67 83 75 74
18 38 70 89 96 94 100 100 96 98 100 96 100 87 100 98 93 96 100 99 100 100 100 100 98 98 99 97 84 66 63 68 69 83 100 99 94 89 84 80 80 86 81 79
19 52 84 96 98 97 98 100 95 99 92 83 80 85 95 87 96 92 93 98 99 98 98 98 98 97 88 78 50 51 70 76 66 60 85 87 88 87 88 93 92 90 88 92
24 48 83 97 100 99 98 100 100 100 99 100 99 89 82 93 91 94 93 98 95 96 99 98 97 86 78 52 61 96 83 85 71 64 73 84 94 94 97 96 95 93 97 95
37 95 88 95 97 100 99 98 99 99 99 100 100 99 96 92 100 94 82 90 98 89 100 91 85 78 53 52 69 93 88 92 99 94 85 95 99 100 100 98 96 100 99 97
50 92 96 92 98 91 94 98 100 100 98 100 99 100 100 100 95 97 92 92 90 92 98 93 88 56 56 58 52 63 80 88 94 95 97 95 98 100 100 99 98 100 99 98
28 52 74 84 84 81 78 87 93 99 100 100 99 98 99 98 98 90 85 92 89 80 86 85 72 54 64 66 61 55 50 71 77 83 83 90 91 94 98 100 100 99 98 97
42 34 50 57 74 77 71 73 78 100 100 100 96 96 90 92 92 97 89 91 67 72 78 77 63 60 63 62 56 51 51 49 45 43 60 76 82 83 84 88 95 99 98 98
40 26 21 16 33 62 78 85 91 96 100 100 92 94 100 99 99 91 87 72 62 77 75 74 74 74 72 66 58 56 52 48 46 44 44 40 53 81 87 87 87 95 97 95

GFSNW_700_rhum_036.txt.gz
RH
30 37 31 46 28 32 42 58 67 88 94 96 92 97 98 95 95 84 88 78 71 77 75 87 84 82 85 74 75 80 82 83 86 84 84 79 92 86 78 80 68 93 97 71
23 36 25 36 29 32 46 59 73 87 85 88 90 100 100 99 82 80 80 71 71 68 78 80 78 82 82 79 88 84 83 82 82 91 77 84 91 80 92 80 79 92 88 66
4 32 33 35 37 28 38 44 50 67 80 82 80 88 97 99 94 82 75 71 76 79 76 80 81 87 92 88 95 90 84 82 66 78 82 74 81 71 74 89 97 86 79 64
7 16 37 38 37 42 41 45 50 61 78 90 97 89 93 93 91 84 77 76 73 80 82 84 91 88 92 97 93 96 94 92 80 72 79 90 86 79 85 87 76 93 67 81
17 3 22 41 39 44 44 46 53 59 72 76 79 76 86 87 94 97 87 89 89 86 84 84 88 84 88 93 97 99 96 90 82 70 72 74 71 66 68 76 83 92 90 91
21 14 2 21 43 40 42 55 56 51 54 65 76 75 74 76 78 90 95 99 92 88 95 90 84 84 79 76 74 88 94 89 91 70 80 78 84 80 94 92 92 95 97 94
26 20 12 2 20 43 45 50 63 66 66 80 82 74 77 73 73 72 75 84 94 97 94 95 95 91 89 89 88 84 82 88 90 79 80 96 88 88 88 90 86 87 90 98
29 25 20 14 2 19 40 51 62 71 78 91 87 75 76 64 67 70 77 85 85 85 89 92 98 99 97 97 96 94 90 87 83 95 94 86 82 85 83 89 69 77 79 86
30 29 24 21 18 4 18 47 59 66 76 82 92 82 74 83 81 71 71 81 82 85 93 93 95 92 99 94 96 96 94 94 98 96 98 94 87 75 79 96 73 76 80 77
26 31 29 25 22 19 7 10 49 65 79 76 89 100 98 93 88 87 93 95 87 83 89 85 89 92 95 98 90 95 99 99 99 99 97 75 62 88 94 88 82 87 72 70
21 29 31 29 26 23 18 9 11 71 84 97 94 99 100 97 91 88 89 94 96 90 90 84 85 94 95 96 98 96 96 99 99 100 98 88 93 90 94 88 82 73 70 72
18 24 29 30 28 26 22 14 10 31 100 91 99 100 99 99 90 88 96 93 95 98 98 89 98 90 94 86 91 93 98 82 84 78 75 82 88 89 91 86 80 68 74 75
17 22 27 29 26 21 19 19 17 13 96 98 98 98 100 100 100 100 98 98 99 99 95 93 97 92 87 86 89 91 96 92 98 90 79 84 87 87 92 85 77 68 70 71
18 21 26 27 22 31 41 46 22 26 61 95 90 96 100 100 100 100 100 96 96 98 98 99 99 97 91 83 81 80 84 91 90 91 74 86 83 88 94 79 73 69 65 68
19 23 26 22 15 23 58 61 21 26 60 96 98 97 97 100 100 99 100 100 93 97 99 98 98 97 99 90 86 74 73 83 90 75 75 99 98 90 81 69 72 73 64 68
21 26 22 8 10 27 58 62 30 36 63 96 97 99 98 99 100 100 98 98 98 96 92 100 97 99 100 100 100 69 88 94 99 93 79 74 80 75 70 68 79 78 69 66
25 24 12 9 22 32 57 67 48 38 95 96 98 97 98 100 100 99 100 99 100 100 99 100 100 100 99 99 93 91 100 95 83 97 98 76 72 76 73 73 76 78 77 67
27 17 11 11 17 28 32 40 44 95 96 98 98 98 97 99 98 99 100 100 100 99 99 100 100 98 98 96 100 96 99 100 100 94 98 99 93 88 77 76 71 71 76 76
22 28 45 34 28 58 74 89 94 96 98 98 98 95 98 100 99 100 98 98 97 99 100 98 100 99 98 97 91 97 93 94 95 99 100 96 85 76 70 68 72 73 70 81
21 54 76 88 77 93 97 100 100 100 100 100 100 100 98 99 96 91 95 95 97 100 99 98 99 100 99 98 95 70 57 52 55 63 77 90 100 97 93 88 82 78 78 84
22 64 85 93 94 95 96 98 98 100 91 84 93 95 100 100 100 98 98 98 99 99 99 99 98 98 92 86 84 83 97 96 87 78 67 71 90 98 93 92 94 94 93 88
22 58 88 91 94 90 94 94 95 99 96 100 92 96 100 100 99 93 93 99 96 100 100 99 95 87 78 66 64 93 100 100 99 78 76 67 90 95 95 97 99 100 97 97
27 53 87 94 95 94 91 93 94 92 100 100 100 100 100 100 100 98 88 97 99 98 100 97 88 86 57 59 60 80 96 93 98 98 84 90 96 97 96 95 100 100 99 99
31 91 87 89 98 96 96 92 94 98 100 100 99 98 99 99 100 100 90 95 99 100 100 99 87 61 58 66 61 58 78 90 86 97 98 98 94 96 99 99 99 98 100 99
31 67 84 90 87 89 92 94 100 100 100 100 99 99 96 96 95 92 92 100 100 100 96 86 80 59 63 66 62 57 53 52 51 61 82 84 90 94 97 98 98 98 98 98
37 35 43 59 66 81 85 84 84 99 98 98 97 97 94 96 91 100 100 100 87 68 64 84 77 64 65 70 68 62 56 52 50 48 45 44 54 70 79 92 94 98 98 98
70 47 41 35 29 32 56 78 77 96 97 97 98 97 100 100 100 100 97 83 62 58 67 78 76 71 75 78 76 74 69 63 58 54 50 47 47 42 56 86 90 92 95 96

GFSNW_700_rhum_039.txt.gz
RH
5 34 30 34 46 54 68 62 83 96 70 85 68 87 89 92 88 77 68 72 69 71 75 81 70 82 73 84 86 77 77 77 98 99 91 90 97 81 78 60 73 99 96 55
9 15 32 30 37 43 48 56 62 68 80 100 93 93 86 86 80 73 69 72 70 70 66 80 80 78 80 81 85 83 80 75 86 94 88 86 84 91 94 82 78 86 85 54
17 6 27 33 30 33 37 48 65 62 56 79 88 89 87 96 87 78 74 69 71 72 70 77 76 73 72 73 80 82 82 77 67 73 76 71 80 69 69 90 95 84 72 50
24 17 4 35 34 38 38 41 56 61 70 64 67 83 93 81 81 84 81 74 69 74 83 80 80 83 85 87 89 95 93 84 83 83 79 85 80 71 73 78 71 80 55 64
28 22 16 5 41 37 28 36 57 72 66 65 74 76 85 77 77 70 72 75 81 92 84 83 82 81 87 87 90 92 95 91 85 69 67 68 70 70 77 81 79 77 71 82
24 28 21 13 9 43 38 37 51 64 65 67 66 68 72 88 84 87 90 94 96 97 88 87 87 86 88 82 80 89 98 93 85 75 86 80 73 63 64 75 90 96 97 99
19 28 28 21 10 14 44 42 49 52 61 71 72 68 72 73 70 75 94 97 91 90 92 94 94 92 91 88 88 94 91 87 85 80 78 96 85 86 89 90 90 94 90 94
19 24 30 28 22 12 12 45 46 49 54 56 69 72 78 77 67 70 74 77 84 90 93 96 96 96 93 94 93 92 91 97 85 92 97 76 70 96 90 85 78 79 87 80
29 20 27 30 28 24 17 6 45 53 54 65 68 74 76 81 77 75 73 73 80 85 90 92 86 85 81 86 88 90 97 95 90 99 100 94 100 93 89 96 86 89 89 75
69 19 23 29 31 30 26 22 10 27 62 60 68 76 86 92 94 87 75 78 86 87 92 94 91 89 88 95 92 95 96 97 96 100 96 82 85 75 98 89 90 89 84 72
94 31 19 24 29 32 30 27 24 18 8 42 82 87 86 89 97 96 92 90 89 91 92 92 84 90 96 97 90 83 81 90 95 96 98 91 88 95 95 95 95 83 75 76
95 61 27 20 25 30 33 30 26 23 17 11 70 94 95 94 95 96 94 97 96 96 90 84 90 96 96 92 94 94 96 84 90 86 83 80 98 97 89 92 94 79 72 75
96 89 22 18 21 26 29 28 24 21 19 15 20 99 100 99 98 98 94 98 99 99 97 97 94 92 89 92 86 91 97 97 98 96 72 79 92 88 89 91 93 76 72 73
96 76 22 18 25 27 26 15 22 43 34 24 29 66 95 94 95 91 91 96 98 98 100 97 91 92 90 88 86 85 92 97 99 90 80 81 83 89 83 88 86 70 75 67
95 62 18 25 27 21 26 83 89 61 27 41 33 97 87 90 96 92 96 97 98 97 99 100 97 96 97 92 92 85 80 83 87 84 75 73 68 88 86 93 83 70 78 69
91 22 23 26 18 16 47 48 61 38 25 38 90 98 95 97 96 95 99 96 99 97 98 98 98 96 95 97 92 99 96 88 91 81 82 91 73 65 84 84 75 72 83 76
87 20 25 22 14 29 37 54 49 26 25 87 96 98 96 98 97 96 99 100 94 98 98 98 98 99 99 94 96 82 99 95 99 99 92 88 92 79 71 72 71 72 79 83
23 23 32 18 13 25 32 40 74 64 94 96 96 97 98 97 94 99 96 98 98 98 98 99 100 98 100 95 88 90 90 96 98 96 99 98 96 92 81 71 73 72 74 74
20 29 60 36 23 29 44 80 98 96 97 96 98 98 98 98 96 97 97 98 98 98 94 96 98 98 98 82 97 96 97 93 80 89 98 99 98 97 83 76 70 64 69 72
24 37 72 87 90 99 100 100 99 100 99 100 97 98 99 94 92 99 95 95 96 100 99 98 98 94 93 98 98 96 79 68 81 65 56 70 82 88 73 75 83 83 78 74
25 40 78 94 94 100 96 94 95 98 100 96 100 97 97 99 93 99 92 98 98 96 97 100 99 98 98 93 90 75 85 98 99 97 88 78 67 77 90 100 99 93 92 90
32 48 83 100 96 94 94 92 93 98 97 100 99 100 98 98 99 97 97 99 96 99 100 97 93 80 75 81 69 94 91 100 97 100 88 81 74 72 98 99 99 99 99 97
31 57 90 95 90 87 87 92 88 99 97 99 100 98 98 99 100 97 96 100 97 100 99 99 79 80 87 59 62 61 95 91 86 99 97 88 91 97 96 95 99 100 94 99
32 64 74 88 94 86 84 86 85 82 95 98 98 97 98 99 96 92 91 100 96 100 100 90 71 81 58 67 64 59 60 82 75 85 94 98 98 98 94 99 100 100 100 99
32 68 87 86 80 87 90 100 99 98 95 95 98 97 94 95 94 94 98 100 98 98 94 66 81 70 61 71 65 62 58 55 53 56 64 70 80 90 90 90 97 98 100 99
78 31 42 67 82 85 88 92 97 98 97 91 94 97 94 98 90 100 99 100 90 63 52 73 85 67 63 71 70 68 65 61 58 56 55 54 54 61 88 89 74 86 97 98
91 82 55 40 35 28 28 45 79 97 97 98 98 98 100 95 98 100 100 96 61 54 54 68 77 76 70 70 73 75 76 74 71 67 63 60 57 57 56 65 88 89 71 77

GFSNW_700_rhum_042.txt.gz
RH
25 13 26 29 38 44 59 64 72 72 75 80 84 87 92 89 83 68 59 64 66 80 80 81 76 83 77 90 90 81 71 69 97 94 91 89 92 84 74 56 72 84 90 41
25 23 8 28 30 31 41 60 66 71 66 79 81 78 80 82 76 68 63 68 64 62 70 73 80 82 78 74 85 79 70 72 83 99 92 91 88 87 88 78 67 75 80 41
22 27 19 6 28 32 34 44 58 60 71 80 76 86 82 79 76 73 68 65 68 65 64 67 75 75 74 70 86 84 77 72 66 67 73 72 82 71 80 89 91 76 54 33
31 26 26 17 13 31 33 38 50 55 62 66 77 82 84 81 83 79 73 73 68 70 71 74 77 71 74 72 88 89 85 79 74 74 76 76 84 76 74 73 64 71 44 52
65 21 28 24 10 18 34 36 41 62 60 58 67 76 82 79 72 74 73 74 80 76 73 78 68 68 70 76 87 84 89 87 83 75 71 69 70 70 80 80 77 72 59 70
91 50 25 29 21 6 28 40 42 60 62 60 58 65 70 78 78 82 77 79 80 81 83 84 84 84 80 81 83 92 96 94 84 78 76 87 73 63 65 57 56 70 79 85
81 93 20 28 28 20 6 35 46 58 64 68 65 63 66 84 79 82 94 92 84 87 90 91 95 94 92 94 84 92 93 95 86 81 76 94 75 87 82 88 95 90 89 86
80 97 34 21 30 28 21 8 38 55 60 58 67 72 69 69 74 79 98 94 93 94 97 96 96 93 96 91 90 90 97 94 83 84 100 70 62 88 92 95 96 94 92 89
89 95 81 21 24 30 30 25 16 16 47 56 62 68 73 72 71 74 86 92 88 94 100 98 92 89 88 90 91 89 97 96 88 94 100 98 94 100 96 98 99 96 87 82
90 89 97 57 17 23 29 31 30 25 16 21 58 72 74 82 80 76 80 81 85 91 97 97 94 88 85 95 95 95 97 99 97 99 96 72 90 94 95 100 94 90 83 80
90 92 94 96 60 19 22 25 29 30 29 24 19 71 85 84 91 94 82 86 85 92 96 96 88 84 92 98 90 85 84 89 99 100 98 86 80 95 98 98 96 92 81 77
94 95 94 96 96 92 31 24 25 29 30 30 25 18 68 86 99 94 100 97 92 93 94 89 87 87 95 96 96 94 93 79 82 76 80 82 93 99 97 92 88 93 78 77
96 98 95 96 90 50 48 22 26 32 29 21 12 11 38 100 100 100 97 92 98 90 92 96 96 89 92 91 90 90 96 96 96 88 78 83 98 97 98 93 86 94 75 78
94 99 97 96 90 28 20 27 23 13 22 25 7 14 16 86 98 97 96 91 92 92 96 97 95 89 91 94 90 89 93 96 97 93 83 84 87 96 92 89 82 90 77 79
96 95 95 71 28 22 25 14 17 43 52 31 13 26 32 40 96 82 95 88 97 95 98 95 94 95 95 92 92 85 84 84 90 88 83 74 67 72 74 72 77 90 84 77
96 96 96 69 23 26 14 22 23 25 31 38 63 68 96 59 98 97 98 95 96 91 96 98 96 98 95 96 97 83 85 90 83 84 82 77 70 78 84 67 69 82 78 73
95 96 86 23 37 16 31 39 21 26 50 84 92 96 95 85 98 97 98 92 96 94 98 97 98 96 97 94 84 77 89 89 95 88 90 89 89 81 93 81 71 79 70 70
95 91 22 50 24 16 26 38 62 87 95 99 96 98 98 98 93 96 90 84 92 97 98 99 98 92 91 91 69 76 87 100 98 95 98 89 93 99 100 97 83 75 70 72
95 26 32 77 31 27 64 94 96 97 96 98 98 98 97 98 95 98 88 98 98 98 98 100 99 94 92 71 79 88 96 96 97 96 81 80 86 96 100 100 94 84 75 71
68 23 57 91 82 80 95 94 96 99 100 95 96 98 100 96 96 97 98 92 96 97 90 90 100 100 77 77 88 97 92 91 74 65 77 87 70 74 90 91 82 84 79 71
34 31 63 98 96 96 96 95 97 97 100 91 95 99 92 99 98 96 95 97 95 95 99 100 99 73 68 89 95 84 76 89 99 96 99 98 90 85 62 78 94 98 100 95
38 49 68 100 97 96 97 98 100 99 98 99 91 94 98 98 97 100 96 99 97 98 100 99 91 60 68 67 76 94 97 95 94 97 98 94 86 88 76 76 100 100 100 100
34 59 90 98 95 97 92 89 93 98 94 95 100 98 95 96 97 96 96 99 98 100 100 90 75 66 72 78 88 82 95 91 92 98 98 98 99 99 94 88 98 99 98 99
65 52 77 94 97 93 86 82 83 98 95 93 95 97 93 92 95 92 96 99 99 100 99 76 60 73 85 68 82 88 64 68 84 82 80 92 95 93 90 94 99 99 99 99
87 64 79 86 86 91 97 96 94 100 98 90 93 98 98 90 90 90 98 100 99 99 91 70 80 89 80 68 71 69 66 63 61 60 59 61 65 69 84 84 77 84 97 97
74 59 40 64 83 96 98 99 99 97 99 97 92 97 95 96 89 100 99 99 96 82 73 80 88 94 71 77 77 76 73 70 68 66 63 61 59 57 56 65 88 91 74 69
86 80 69 43 54 48 56 62 56 95 97 98 97 96 90 96 99 98 95 99 81 72 71 70 97 94 77 76 79 79 79 80 79 75 71 69 67 65 62 59 56 56 77 90